Location: Observatoire de l'Aigle
(47.0607°N, 71.3152°W)
Time: 00:21:29
(UTC-04:00)

Amateur Radio Satellites - All Passes

Search period start: 20 August 2014 23:51
Search period end: 21 August 2014 23:51
Location: Observatoire de l'Aigle, 47.0607°N, 71.3152°W

Satellite Date Start Highest point End Downlink Frequencies (MHz)
Time Altitude Azimuth
KITSAT 1 21 Aug 00:10:26 00:15:26 18° 101° (E) 00:20:27 435.175 FM
MaSat-1 21 Aug 01:03:09 01:08:11 86° 242° (WSW) 01:12:38 437.345 MHz
Oscar 16 21 Aug 01:12:57 01:16:24 18° 90° (E) 01:19:50 437.025 USB, Beacon 2401.1428
Saudisat 1A 21 Aug 01:16:53 01:20:59 39° 119° (ESE) 01:25:06 436.775 MHz
Sapphire 21 Aug 01:20:01 01:21:19 11° 17° (NNE) 01:22:37 437.095 MHz 1200 baud AX-25 AFSK
JAS-1B 21 Aug 01:33:28 01:37:01 14° 79° (ENE) 01:40:18 435.800 - 435.900 CW/SSB
PCSat 21 Aug 01:49:58 01:52:51 14° 26° (NNE) 01:55:43 145.825 MHz
KITSAT 1 21 Aug 02:01:29 02:09:33 78° 121° (ESE) 02:17:40 435.175 FM
Oscar 19 21 Aug 02:18:06 02:23:17 62° 101° (ESE) 02:28:25 437.125 CW, 437.150 USB
Gurwin Techsat 1B 21 Aug 02:19:41 02:22:32 14° 87° (E) 02:25:22 435.225 FM
ITAMSAT 1 21 Aug 02:25:56 02:30:37 34° 96° (E) 02:35:16 435.822 SSB
AO-Echo 21 Aug 02:33:04 02:37:34 41° 98° (E) 02:41:59 ?
Uribyol 2 21 Aug 02:38:34 02:43:33 46° 99° (E) 02:48:31 436.500 FM
MaSat-1 21 Aug 02:42:48 02:44:19 11° 263° (W) 02:45:46 437.345 MHz
Oscar 16 21 Aug 02:51:05 02:56:16 69° 288° (WNW) 03:01:26 437.025 USB, Beacon 2401.1428
AO-27 21 Aug 02:51:46 02:56:53 57° 101° (E) 03:01:58 436.795 MHz FM
Saudisat 1A 21 Aug 02:56:37 03:00:38 33° 318° (NW) 03:04:40 436.775 MHz
Sapphire 21 Aug 03:01:55 03:06:39 29° 42° (NE) 03:11:21 437.095 MHz 1200 baud AX-25 AFSK
OPAL 21 Aug 03:05:57 03:10:18 31° 61° (ENE) 03:14:44 ?
TMSAT-1 21 Aug 03:17:02 03:21:49 34° 96° (E) 03:26:35 436.925 FM
JAS-1B 21 Aug 03:21:32 03:29:25 76° 103° (ESE) 03:35:54 435.800 - 435.900 CW/SSB
PCSat 21 Aug 03:32:25 03:37:40 47° 49° (NE) 03:42:53 145.825 MHz
Gurwin Techsat 1B 21 Aug 03:57:51 04:03:12 84° 286° (WNW) 04:08:30 435.225 FM
Oscar 19 21 Aug 03:58:19 04:02:12 22° 300° (WNW) 04:06:04 437.125 CW, 437.150 USB
KITSAT 1 21 Aug 03:58:26 04:05:45 36° 325° (NW) 04:13:06 435.175 FM
ITAMSAT 1 21 Aug 04:05:25 04:10:07 36° 294° (WNW) 04:14:49 435.822 SSB
AO-Echo 21 Aug 04:12:15 04:16:11 26° 297° (WNW) 04:20:03 ?
Uribyol 2 21 Aug 04:18:30 04:22:50 28° 297° (WNW) 04:27:09 436.500 FM
AO-7 21 Aug 04:19:28 04:26:47 33° 95° (E) 04:34:01 29.400 - 29.500 MHz
AO-27 21 Aug 04:32:03 04:36:02 23° 300° (WNW) 04:40:01 436.795 MHz FM
Oscar 16 21 Aug 04:32:48 04:34:42 12° 307° (NW) 04:36:35 437.025 USB, Beacon 2401.1428
Saudisat 1A 21 Aug 04:40:24 04:41:34 11° 341° (NNW) 04:42:43 436.775 MHz
OPAL 21 Aug 04:44:22 04:49:04 40° 260° (W) 04:53:51 ?
Sapphire 21 Aug 04:45:05 04:50:26 60° 242° (WSW) 04:55:45 437.095 MHz 1200 baud AX-25 AFSK
Uosat F 21 Aug 04:52:13 04:57:05 49° 100° (E) 05:01:55 435.120 FM
TMSAT-1 21 Aug 04:56:56 05:01:46 37° 294° (WNW) 05:06:36 436.925 FM
JAS-1B 21 Aug 05:12:51 05:19:06 26° 308° (NW) 05:24:34 435.800 - 435.900 CW/SSB
PCSat 21 Aug 05:16:09 05:20:56 32° 249° (WSW) 05:25:42 145.825 MHz
Gurwin Techsat 1B 21 Aug 05:39:31 05:42:23 15° 305° (NW) 05:45:14 435.225 FM
KITSAT 1 21 Aug 05:58:13 06:03:54 20° 354° (N) 06:09:35 435.175 FM
STRAND 1 21 Aug 06:10:10 06:15:08 54° 70° (ENE) 06:20:07 ?
AO-7 21 Aug 06:11:54 06:20:05 65° 296° (WNW) 06:28:13 29.400 - 29.500 MHz
SO-50 21 Aug 06:26:22 06:30:41 49° 121° (ESE) 06:35:07 436.795 FM
Uosat F 21 Aug 06:31:36 06:35:36 25° 298° (WNW) 06:39:36 435.120 FM
Hamsat 21 Aug 06:37:23 06:41:43 59° 100° (E) 06:46:01 145.90 MHz
JAS-2 21 Aug 06:56:01 07:01:13 68° 102° (ESE) 07:06:26 435.800 - 435.900 CW/SSB, 435.910 FM
SO-67 21 Aug 06:59:27 07:01:21 14° 91° (E) 07:03:16 435.3500 MHz FM
UOSAT-12 21 Aug 07:45:48 07:49:41 27° 115° (ESE) 07:53:38 437.025 FM, 437.400 FM
STRAND 1 21 Aug 07:50:45 07:54:39 22° 268° (W) 07:58:35 ?
KITSAT 1 21 Aug 07:56:00 08:02:32 26° 24° (NNE) 08:09:03 435.175 FM
Saudisat 1A 21 Aug 08:01:43 08:04:44 18° 31° (NNE) 08:07:43 436.775 MHz
HO-68 21 Aug 08:03:58 08:05:32 11° 83° (E) 08:07:05 435.675 MHz FM
AO-7 21 Aug 08:06:05 08:11:22 19° 318° (NW) 08:16:38 29.400 - 29.500 MHz
RS-15 21 Aug 08:06:09 08:14:22 25° 102° (ESE) 08:22:28 29.354 - 29.394 USB, Beacon 29.352 USB
SO-50 21 Aug 08:07:30 08:11:28 29° 321° (NW) 08:15:32 436.795 FM
Hamsat 21 Aug 08:14:25 08:17:15 17° 298° (WNW) 08:20:04 145.90 MHz
SO-67 21 Aug 08:31:21 08:34:38 41° 288° (WNW) 08:37:54 435.3500 MHz FM
JAS-2 21 Aug 08:42:21 08:45:50 18° 302° (WNW) 08:49:19 435.800 - 435.900 CW/SSB, 435.910 FM
UKube-1 21 Aug 09:12:55 09:15:40 16° 91° (E) 09:18:24 145.840 MHz, 145.915 MHz
UOSAT-12 21 Aug 09:25:07 09:29:37 48° 314° (NW) 09:34:13 437.025 FM, 437.400 FM
Oscar 11 21 Aug 09:30:15 09:32:59 16° 90° (E) 09:35:43 145.825 FM, Beacon 2401.500 USB
Saudisat 1A 21 Aug 09:40:35 09:45:02 78° 52° (NE) 09:49:26 436.775 MHz
HO-68 21 Aug 09:47:38 09:54:43 61° 103° (ESE) 10:01:46 435.675 MHz FM
KITSAT 1 21 Aug 09:51:33 09:59:37 65° 49° (NE) 10:07:37 435.175 FM
SO-50 21 Aug 09:52:22 09:53:34 11° 345° (NNW) 09:54:47 436.795 FM
RS-15 21 Aug 10:14:04 10:25:09 87° 125° (SE) 10:36:08 29.354 - 29.394 USB, Beacon 29.352 USB
UKube-1 21 Aug 10:47:58 10:52:14 56° 289° (WNW) 10:56:28 145.840 MHz, 145.915 MHz
FUNcube-1 21 Aug 11:01:44 11:06:04 55° 100° (E) 11:10:29 145.950 - 145.970 MHz USB
Oscar 11 21 Aug 11:05:14 11:09:33 57° 288° (WNW) 11:13:49 145.825 FM, Beacon 2401.500 USB
UOSAT-12 21 Aug 11:08:19 11:10:55 14° 336° (NNW) 11:13:31 437.025 FM, 437.400 FM
Saudisat 1A 21 Aug 11:21:40 11:24:02 14° 250° (WSW) 11:26:24 436.775 MHz
HO-68 21 Aug 11:35:53 11:42:03 33° 303° (WNW) 11:48:12 435.675 MHz FM
KITSAT 1 21 Aug 11:47:30 11:54:35 35° 251° (WSW) 12:01:39 435.175 FM
Oscar 19 21 Aug 12:00:52 12:04:26 19° 59° (ENE) 12:08:01 437.125 CW, 437.150 USB
ITAMSAT 1 21 Aug 12:11:34 12:13:25 12° 53° (NE) 12:15:16 435.822 SSB
AO-Echo 21 Aug 12:13:38 12:15:43 13° 55° (NE) 12:17:46 ?
JAS-1B 21 Aug 12:18:34 12:26:09 27° 52° (NE) 12:33:16 435.800 - 435.900 CW/SSB
Uribyol 2 21 Aug 12:22:57 12:25:55 16° 56° (NE) 12:28:52 436.500 FM
RS-15 21 Aug 12:28:43 12:38:51 40° 333° (NNW) 12:49:03 29.354 - 29.394 USB, Beacon 29.352 USB
Oscar 16 21 Aug 12:32:32 12:37:09 35° 65° (ENE) 12:41:48 437.025 USB, Beacon 2401.1428
AO-27 21 Aug 12:35:43 12:39:16 19° 58° (ENE) 12:42:50 436.795 MHz FM
FUNcube-1 21 Aug 12:39:05 12:42:07 19° 297° (WNW) 12:45:11 145.950 - 145.970 MHz USB
TMSAT-1 21 Aug 13:04:57 13:06:59 12° 53° (NE) 13:09:00 436.925 FM
SO-50 21 Aug 13:14:55 13:18:41 23° 34° (NE) 13:22:29 436.795 FM
AO-7 21 Aug 13:33:28 13:38:24 17° 40° (NE) 13:43:19 29.400 - 29.500 MHz
Oscar 19 21 Aug 13:38:07 13:43:15 70° 257° (WSW) 13:48:26 437.125 CW, 437.150 USB
Gurwin Techsat 1B 21 Aug 13:43:07 13:47:44 31° 64° (ENE) 13:52:23 435.225 FM
ITAMSAT 1 21 Aug 13:46:51 13:51:59 69° 72° (ENE) 13:57:09 435.822 SSB
AO-Echo 21 Aug 13:48:32 13:53:42 75° 74° (ENE) 13:58:43 ?
Uribyol 2 21 Aug 13:59:31 14:04:41 89° 255° (WSW) 14:09:53 436.500 FM
JAS-1B 21 Aug 14:05:35 14:15:32 83° 72° (ENE) 14:24:51 435.800 - 435.900 CW/SSB
Oscar 16 21 Aug 14:11:48 14:16:29 35° 264° (W) 14:21:13 437.025 USB, Beacon 2401.1428
AO-27 21 Aug 14:13:04 14:18:15 72° 257° (WSW) 14:23:27 436.795 MHz FM
UOSAT-12 21 Aug 14:32:26 14:35:23 16° 26° (NNE) 14:38:18 437.025 FM, 437.400 FM
Uosat F 21 Aug 14:32:32 14:35:22 15° 56° (NE) 14:38:11 435.120 FM
TMSAT-1 21 Aug 14:40:42 14:45:57 69° 72° (ENE) 14:51:14 436.925 FM
ISS 21 Aug 14:41:49 14:44:56 40° 145° (SE) 14:48:05 145.800 FM
RS-15 21 Aug 14:45:32 14:54:58 31° 7° (N) 15:04:33 29.354 - 29.394 USB, Beacon 29.352 USB
SO-50 21 Aug 14:55:01 14:59:48 80° 235° (SW) 15:04:38 436.795 FM
MaSat-1 21 Aug 14:55:19 14:59:12 25° 105° (ESE) 15:03:20 437.345 MHz
AO-7 21 Aug 15:21:25 15:29:32 59° 63° (ENE) 15:37:39 29.400 - 29.500 MHz
Gurwin Techsat 1B 21 Aug 15:22:36 15:27:35 41° 262° (W) 15:32:37 435.225 FM
ITAMSAT 1 21 Aug 15:28:36 15:32:00 18° 270° (W) 15:35:25 435.822 SSB
AO-Echo 21 Aug 15:29:56 15:32:59 16° 271° (W) 15:36:00 ?
Uribyol 2 21 Aug 15:42:44 15:44:55 13° 273° (W) 15:47:06 436.500 FM
JAS-1B 21 Aug 15:58:33 16:06:45 29° 271° (W) 16:14:39 435.800 - 435.900 CW/SSB
Uosat F 21 Aug 16:08:26 16:13:29 88° 256° (WSW) 16:18:32 435.120 FM
UOSAT-12 21 Aug 16:11:50 16:16:32 57° 48° (NE) 16:21:10 437.025 FM, 437.400 FM
ISS 21 Aug 16:18:24 16:21:39 50° 344° (NNW) 16:24:55 145.800 FM
TMSAT-1 21 Aug 16:22:52 16:26:24 18° 271° (W) 16:29:58 436.925 FM
MaSat-1 21 Aug 16:31:13 16:35:59 53° 305° (NW) 16:41:05 437.345 MHz
SO-50 21 Aug 16:37:54 16:39:37 12° 252° (WSW) 16:41:20 436.795 FM
OPAL 21 Aug 16:50:44 16:55:39 41° 100° (E) 17:00:33 ?
RS-15 21 Aug 16:59:36 17:10:22 55° 39° (NE) 17:21:26 29.354 - 29.394 USB, Beacon 29.352 USB
JAS-2 21 Aug 17:10:42 17:16:51 44° 68° (ENE) 17:22:22 435.800 - 435.900 CW/SSB, 435.910 FM
AO-7 21 Aug 17:15:06 17:22:40 37° 263° (W) 17:30:16 29.400 - 29.500 MHz
Hamsat 21 Aug 17:33:28 17:37:40 61° 73° (ENE) 17:41:58 145.90 MHz
Uosat F 21 Aug 17:51:08 17:53:00 12° 273° (W) 17:54:52 435.120 FM
Sapphire 21 Aug 17:51:25 17:52:27 11° 101° (E) 17:53:28 437.095 MHz 1200 baud AX-25 AFSK
UOSAT-12 21 Aug 17:52:41 17:56:20 23° 247° (WSW) 17:59:57 437.025 FM, 437.400 FM
ISS 21 Aug 17:55:41 17:58:48 36° 4° (N) 18:01:56 145.800 FM
MaSat-1 21 Aug 18:11:49 18:14:20 14° 327° (NNW) 18:16:54 437.345 MHz
PCSat 21 Aug 18:18:38 18:22:35 21° 107° (ESE) 18:26:33 145.825 MHz
STRAND 1 21 Aug 18:19:14 18:21:54 14° 88° (E) 18:24:33 ?
OPAL 21 Aug 18:29:50 18:34:25 32° 298° (WNW) 18:38:59 ?
HO-68 21 Aug 18:35:46 18:39:39 16° 45° (NE) 18:43:32 435.675 MHz FM
JAS-2 21 Aug 18:56:02 19:02:02 35° 263° (W) 19:07:26 435.800 - 435.900 CW/SSB, 435.910 FM
SO-67 21 Aug 19:06:51 19:10:19 80° 258° (WSW) 19:13:49 435.3500 MHz FM
Hamsat 21 Aug 19:11:40 19:14:04 15° 271° (W) 19:16:30 145.90 MHz
RS-15 21 Aug 19:12:16 19:22:56 58° 245° (WSW) 19:34:00 29.354 - 29.394 USB, Beacon 29.352 USB
Sapphire 21 Aug 19:29:29 19:34:51 70° 119° (ESE) 19:40:15 437.095 MHz 1200 baud AX-25 AFSK
ISS 21 Aug 19:32:30 19:35:51 78° 24° (NNE) 19:39:11 145.800 FM
STRAND 1 21 Aug 19:56:37 20:01:44 82° 286° (WNW) 20:06:50 ?
PCSat 21 Aug 20:00:06 20:05:29 68° 306° (NW) 20:10:55 145.825 MHz
UKube-1 21 Aug 20:11:16 20:14:38 22° 63° (ENE) 20:18:01 145.840 MHz, 145.915 MHz
HO-68 21 Aug 20:19:01 20:26:01 62° 67° (ENE) 20:33:03 435.675 MHz FM
Oscar 11 21 Aug 20:28:22 20:31:28 20° 63° (ENE) 20:34:36 145.825 FM, Beacon 2401.500 USB
ISS 21 Aug 21:09:43 21:12:17 21° 222° (SW) 21:14:52 145.800 FM
Sapphire 21 Aug 21:14:16 21:18:47 26° 320° (NW) 21:23:20 437.095 MHz 1200 baud AX-25 AFSK
RS-15 21 Aug 21:28:49 21:32:41 12° 267° (W) 21:36:36 29.354 - 29.394 USB, Beacon 29.352 USB
STRAND 1 21 Aug 21:37:40 21:40:09 14° 305° (NW) 21:42:37 ?
PCSat 21 Aug 21:46:16 21:49:56 18° 328° (NNW) 21:53:37 145.825 MHz
UKube-1 21 Aug 21:46:27 21:50:36 43° 261° (W) 21:54:46 145.840 MHz, 145.915 MHz
FUNcube-1 21 Aug 22:01:17 22:05:22 63° 73° (ENE) 22:09:32 145.950 - 145.970 MHz USB
Oscar 11 21 Aug 22:03:08 22:07:20 49° 261° (W) 22:11:34 145.825 FM, Beacon 2401.500 USB
HO-68 21 Aug 22:08:05 22:14:10 30° 266° (W) 22:20:17 435.675 MHz FM
Sapphire 21 Aug 23:03:43 23:04:14 10° 345° (NNW) 23:04:44 437.095 MHz 1200 baud AX-25 AFSK
MaSat-1 21 Aug 23:09:47 23:13:17 18° 39° (NE) 23:16:35 437.345 MHz
FUNcube-1 21 Aug 23:40:13 23:42:14 13° 271° (W) 23:44:16 145.950 - 145.970 MHz USB
